Home > Weather > Hommelvik > Past weeks

Flag for Norway Weather for the Past 2 Weeks in Hommelvik, Norway

Now
52 °F

Passing clouds.


Feels Like: 49 °F
Forecast: 44 / 56 °F
Wind: 8 mph from Southeast

Location: Trondheim / Vaernes

Current Time: May 3, 2016 at 9:04:11 AM

Latest Report: May 3, 2016 at 8:20 AM


Visibility: N/A

Pressure: 29.83 "Hg

Humidity: 54%

Dew Point: 36 °F

Location of HommelvikLocation

Historic Weather in Hommelvik — Graph

°F

Hommelvik Temperature Yesterday

Maximum temperature yesterday: 57 °F (at 2:20 PM)
Minimum temperature yesterday: 36 °F (at 4:50 AM)
Average temperature yesterday: 50 °F

High & Low Weather Summary for the Past Weeks

 TemperatureHumidityPressure
High57 °F (May 2, 2:20 PM)100% (Apr 24, 1:20 AM)30.21 "Hg (Apr 24, 1:20 AM)
Low27 °F (Apr 25, 5:20 AM)32% (Apr 25, 4:50 PM)29.27 "Hg (Apr 18, 4:20 PM)
Average42 °F68%29.89 "Hg
* Reported Apr 18 6:20 AM — May 3 6:50 AM, Hommelvik, Weather by CustomWeather, © 2016

Note: Actual official high and low records may vary slightly from our data, if they occured in-between our weather recording intervals... More about our weather records

Advertising

Hommelvik Weather History for the Previous 24 Hours

Scroll right to see more
 ConditionsComfort  
Time TempWeatherWind HumidityBarometerVisibility
6:50 AM
Tue, May 3
52 °FPassing clouds.3 mph54%29.83 "HgN/A
5:50 AM48 °FPassing clouds.6 mph58%29.83 "HgN/A
5:20 AM48 °FPassing clouds.7 mph58%29.83 "HgN/A
4:50 AM48 °FPassing clouds.7 mph58%29.83 "HgN/A
3:50 AM48 °FClear.10 mph58%29.83 "Hg10 mi
2:50 AM48 °FPassing clouds.7 mph58%29.83 "HgN/A
1:50 AM48 °FPassing clouds.9 mph58%29.83 "HgN/A
1:20 AM50 °FPassing clouds.12 mph54%29.83 "HgN/A
12:50 AM50 °FPassing clouds.6 mph54%29.83 "HgN/A
11:50 PM
Mon, May 2
50 °FPassing clouds.13 mph58%29.83 "HgN/A
11:20 PM50 °FPassing clouds.13 mph58%29.83 "HgN/A
10:50 PM48 °FPassing clouds.8 mph66%29.83 "HgN/A
10:20 PM50 °FScattered clouds.7 mph62%29.83 "HgN/A
9:50 PM50 °FScattered clouds.18 mph58%29.83 "HgN/A
9:20 PM48 °FDrizzle. Partly sunny.21 mph66%29.83 "HgN/A
8:50 PM48 °FDrizzle. Broken clouds.24 mph66%29.83 "HgN/A
8:20 PM50 °FLight rain. Broken clouds.18 mph62%29.86 "HgN/A
7:50 PM50 °FLight rain. Broken clouds.12 mph62%29.86 "HgN/A
6:50 PM50 °FLight rain. Clear.7 mph62%29.86 "HgN/A
6:20 PM52 °FClear.12 mph54%29.86 "HgN/A
5:50 PM54 °FScattered showers. Clear.13 mph51%29.83 "HgN/A
5:20 PM55 °FPassing clouds.16 mph47%29.86 "HgN/A
4:50 PM55 °FPassing clouds.14 mph47%29.86 "HgN/A
4:20 PM55 °FPassing clouds.9 mph47%29.86 "HgN/A
3:50 PM57 °FPassing clouds.14 mph44%29.86 "HgN/A
3:20 PM55 °FSunny.13 mph44%29.86 "Hg10 mi
2:50 PM57 °FPassing clouds.14 mph41%29.86 "HgN/A
2:20 PM57 °FSunny.18 mph41%29.86 "Hg10 mi
1:50 PM55 °FSunny.18 mph44%29.89 "Hg10 mi
1:20 PM55 °FSunny.16 mph44%29.89 "Hg10 mi
12:50 PM55 °FPassing clouds.15 mph41%29.92 "HgN/A
12:20 PM55 °FPassing clouds.13 mph41%29.92 "HgN/A
11:50 AM55 °FSunny.13 mph41%29.92 "Hg10 mi
11:20 AM54 °FSunny.13 mph44%29.92 "Hg10 mi
10:50 AM52 °FSunny.12 mph44%29.95 "Hg10 mi
10:20 AM52 °FSunny.9 mph44%29.95 "Hg10 mi
9:50 AM50 °FSunny.15 mph47%29.98 "Hg10 mi
9:20 AM50 °FSunny.16 mph47%29.98 "Hg10 mi
Weather by CustomWeather, © 2016

See weather overviewHow to use our weather pages